[Iaude] MPEC Q200: 2020 QY5 [a=2.15,e=0.72,i=4.6,H=22.7]

mpec at marsden.cfa.harvard.edu mpec at marsden.cfa.harvard.edu
Wed Aug 26 03:51:11 EDT 2020


M.P.E.C. 2020-Q200                              Issued 2020 August 26, 07:50 UT

     The Minor Planet Electronic Circulars contain information on unusual
         minor planets and routine data on comets.  They are published
    on behalf of Division F of the International Astronomical Union by the
          Minor Planet Center, Smithsonian Astrophysical Observatory,
                          Cambridge, MA 02138, U.S.A.

             Prepared using the Tamkin Foundation Computer Network

                              MPC at CFA.HARVARD.EDU
            URL https://www.minorplanetcenter.net/    ISSN 1523-6714

                                    2020 QY5                                    


Observations:
     K20Q05Y  C2020 08 23.49904501 18 37.950+25 32 59.78         20.51GVEQ200F51
     K20Q05Y  C2020 08 23.51139801 18 29.461+25 32 13.11         21.86GVEQ200F51
     K20Q05Y* C2020 08 23.52386601 18 20.939+25 31 26.39         21.62wUEQ200F51
     K20Q05Y  C2020 08 23.53679301 18 12.109+25 30 37.67         21.28wUEQ200F51
     K20Q05Y  C2020 08 24.02434 01 12 54.90 +24 59 24.4          20.3 VVEQ200033
     K20Q05Y  C2020 08 24.02595 01 12 53.79 +24 59 18.1          20.5 VVEQ200033
     K20Q05Y  C2020 08 24.02758 01 12 52.68 +24 59 10.9          21.3 VVEQ200033
     K20Q05Y bC2020 08 24.06670501 12 27.17 +24 56 49.3          21.4 GVEQ200L01
     K20Q05Y bC2020 08 24.06843701 12 26.02 +24 56 43.6          21.5 GVEQ200L01
     K20Q05Y bC2020 08 24.07060801 12 24.63 +24 56 34.6          21.4 GVEQ200L01
     K20Q05Y KC2020 08 24.28877 01 10 07.95 +24 42 52.6          21.4 GVEQ200H36
     K20Q05Y KC2020 08 24.30220 01 09 59.36 +24 42 02.1          21.0 GVEQ200H36
     K20Q05Y KC2020 08 24.31564 01 09 50.77 +24 41 11.9          21.3 GVEQ200H36
     K20Q05Y KC2020 08 24.34249 01 09 33.57 +24 39 31.7          21.0 GVEQ200H36
     K20Q05Y KC2020 08 25.12396001 01 38.49 +23 50 34.8          21.0 GVEQ200I93
     K20Q05Y KC2020 08 25.13340101 01 32.85 +23 49 59.6          20.8 GVEQ200I93
     K20Q05Y KC2020 08 25.14283701 01 27.10 +23 49 24.4          20.6 GVEQ200I93
     K20Q05Y KC2020 08 25.30919100 59 51.02 +23 39 08.4          20.4 VuEQ200H21
     K20Q05Y KC2020 08 25.31500700 59 47.56 +23 38 46.9          20.5 VuEQ200H21
     K20Q05Y KC2020 08 25.32169600 59 43.59 +23 38 21.6          20.8 VuEQ200H21
     K20Q05Y KC2020 08 26.29267300 50 40.38 +22 38 47.9          20.8 VuEQ200H21
     K20Q05Y KC2020 08 26.29615300 50 38.44 +22 38 35.3          20.6 VuEQ200H21
     K20Q05Y KC2020 08 26.29963200 50 36.51 +22 38 22.8          20.9 VuEQ200H21

Observer details:
033 Karl Schwarzschild Observatory, Tautenburg.  Observers S. Melnikov, F.
    Ludwig, B. Stecklum.  Measurer B. Stecklum.  1.34-m f/3 Schmidt + CCD.
F51 Pan-STARRS 1, Haleakala.  Observers J. Bulger, K. Chambers, T. Lowe, A.
    Schultz, M. Willman.  Measurers S. Chastel, M. Huber, Y. Ramanjooloo, R.
    Wainscoat, R. Weryk, K. Chambers, T. de Boer, L. Denneau, J. Fairlamb, H.
    Flewelling, C.-C. Lin, E. Magnier.  1.8-m Ritchey-Chretien + CCD.
H21 Astronomical Research Observatory, Westfield.  Observer R. Holmes.
    Measurers S. Foglia, L. Buzzi, T. Linder, R. Holmes.  0.76-m f/3.0
    astrograph + CCD, 0.81-m f/4.0 astrograph + CCD.
H36 Sandlot Observatory, Scranton.  Observer G. Hug.  0.56-m reflector + CCD.
I93 St Pardon de Conques.  Observer F. Losse.  0.40-m f/3.7 reflector + CCD.
L01 Visnjan Observatory, Tican.  Observer K. Korlevic.  1.0-m f/2.9 reflector
    + CCD.

Orbital elements:
2020 QY5                                                 Earth MOID = 0.0358 AU
Epoch 2020 May 31.0 TT = JDT 2459000.5                  Bell                    
M 350.94613              (2000.0)            P               Q                  
n   0.31321438     Peri.  297.15744     -0.47559162     +0.87715358             
a   2.1473768      Node   304.28951     -0.77594269     -0.45389542             
e   0.7242035      Incl.    4.61246     -0.41439782     -0.15678186             
P   3.15           H   22.75          G   0.15           U   9                  
Residuals in seconds of arc
200823 F51  0.2+  0.2+    200824 L01  0.3-  0.9+    200825 I93  0.4-  0.0+
200823 F51  0.2-  0.2-    200824 L01  0.0+  0.1+    200825 H21  0.1-  0.4+
200823 F51  0.1-  0.0-    200824 H36  0.8-  0.3+    200825 H21  0.0+  0.4+
200823 F51  0.1+  0.0-    200824 H36  0.6-  0.2-    200825 H21  0.3+  0.2-
200824 033  0.8+  0.2+    200824 H36  0.2-  0.3-    200826 H21  0.1+  0.1-
200824 033  0.0+  0.0-    200824 H36  0.0+  0.2-    200826 H21  0.0-  0.1-
200824 033  0.6-  1.1-    200825 I93  0.5-  0.2-    200826 H21  0.1-  0.1-
200824 L01  0.1-  0.0+    200825 I93  0.4+  0.1-

Ephemeris:
2020 QY5                 a,e,i = 2.15, 0.72, 5                   q = 0.5922
Date    TT    R. A. (2000) Decl.     Delta      r    Elong.  Phase     V
2020 07 27    07 49 49.5 +21 42 58   0.2350  0.7842     8.8   168.6    34.7
...
2020 08 11    04 38 23.5 +33 27 51   0.1509  0.9627    66.3   105.5    22.5
...
2020 08 19    02 17 20.3 +30 06 54   0.1609  1.0613   103.5    68.0    21.3
...
2020 08 25    01 02 52.5 +23 58 37   0.1912  1.1349   126.4    45.8    21.2
2020 08 26    00 53 19.6 +22 56 53   0.1977  1.1471   129.7    42.7    21.2
2020 08 27    00 44 28.2 +21 56 33   0.2046  1.1592   132.8    39.7    21.2
...
2020 09 02    00 03 07.9 +16 34 33   0.2522  1.2317   148.8    25.1    21.4
...
2020 09 10    23 29 12.1 +11 15 16   0.3298  1.3264   163.4    12.6    21.7
...
2020 09 25    22 58 40.6 +05 15 32   0.5105  1.4971   162.2    11.8    22.9

M. P. C. Staff               (C) Copyright 2020 MPC           M.P.E.C. 2020-Q200




More information about the Iaude mailing list